Year,Month,Day,Hour,Minute,Value (Times are PST for temperature in C)
2020,04,25,00,00,-4.30
2020,04,25,00,01,-4.20
2020,04,25,00,02,-4.30
2020,04,25,00,03,-4.30
2020,04,25,00,04,-4.30
2020,04,25,00,05,-4.30
2020,04,25,00,06,-4.30
2020,04,25,00,07,-4.30
2020,04,25,00,08,-4.30
2020,04,25,00,09,-4.30
2020,04,25,00,10,-4.30
2020,04,25,00,11,-4.30
2020,04,25,00,12,-4.30
2020,04,25,00,13,-4.30
2020,04,25,00,14,-4.40
2020,04,25,00,15,-4.40
2020,04,25,00,16,-4.50
2020,04,25,00,17,-4.50
2020,04,25,00,18,-4.60
2020,04,25,00,19,-4.60
2020,04,25,00,20,-4.70
2020,04,25,00,21,-4.70
2020,04,25,00,22,-4.70
2020,04,25,00,23,-4.70
2020,04,25,00,24,-4.70
2020,04,25,00,25,-4.70
2020,04,25,00,26,-4.70
2020,04,25,00,27,-4.80
2020,04,25,00,28,-4.80
2020,04,25,00,29,-4.80
2020,04,25,00,30,-4.80
2020,04,25,00,31,-4.80
2020,04,25,00,32,-4.80
2020,04,25,00,33,-4.80
2020,04,25,00,34,-4.80
2020,04,25,00,35,-4.80
2020,04,25,00,36,-4.80
2020,04,25,00,37,-4.90
2020,04,25,00,38,-4.80
2020,04,25,00,39,-4.80
2020,04,25,00,40,-4.80
2020,04,25,00,41,-4.80
2020,04,25,00,42,-4.80
2020,04,25,00,43,-4.90
2020,04,25,00,44,-4.90
2020,04,25,00,45,-4.90
2020,04,25,00,46,-4.90
2020,04,25,00,47,-4.90
2020,04,25,00,48,-4.90
2020,04,25,00,49,-5.00
2020,04,25,00,50,-5.00
2020,04,25,00,51,-5.00
2020,04,25,00,52,-5.00
2020,04,25,00,53,-5.00
2020,04,25,00,54,-5.00
2020,04,25,00,55,-5.00
2020,04,25,00,56,-5.10
2020,04,25,00,57,-5.10
2020,04,25,00,58,-5.10
2020,04,25,00,59,-5.10
2020,04,25,01,00,-5.10
2020,04,25,01,01,-5.10
2020,04,25,01,02,-5.10
2020,04,25,01,03,-5.10
2020,04,25,01,04,-5.20
2020,04,25,01,05,-5.20
2020,04,25,01,06,-5.20
2020,04,25,01,07,-5.20
2020,04,25,01,08,-5.20
2020,04,25,01,09,-5.20
2020,04,25,01,10,-5.20
2020,04,25,01,11,-5.30
2020,04,25,01,12,-5.30
2020,04,25,01,13,-5.30
2020,04,25,01,14,-5.30
2020,04,25,01,15,-5.30
2020,04,25,01,16,-5.30
2020,04,25,01,17,-5.30
2020,04,25,01,18,-5.30
2020,04,25,01,19,-5.40
2020,04,25,01,20,-5.40
2020,04,25,01,21,-5.40
2020,04,25,01,22,-5.40
2020,04,25,01,23,-5.50
2020,04,25,01,24,-5.50
2020,04,25,01,25,-5.50
2020,04,25,01,26,-5.60
2020,04,25,01,27,-5.60
2020,04,25,01,28,-5.60
2020,04,25,01,29,-5.60
2020,04,25,01,30,-5.60
2020,04,25,01,31,-5.70
2020,04,25,01,32,-5.70
2020,04,25,01,33,-5.70
2020,04,25,01,34,-5.70
2020,04,25,01,35,-5.70
2020,04,25,01,36,-5.70
2020,04,25,01,37,-5.80
2020,04,25,01,38,-5.80
2020,04,25,01,39,-5.80
2020,04,25,01,40,-5.80
2020,04,25,01,41,-5.80
2020,04,25,01,42,-5.80
2020,04,25,01,43,-5.80
2020,04,25,01,44,-5.80
2020,04,25,01,45,-5.80
2020,04,25,01,46,-5.90
2020,04,25,01,47,-5.90
2020,04,25,01,48,-5.90
2020,04,25,01,49,-5.90
2020,04,25,01,50,-5.90
2020,04,25,01,51,-5.90
2020,04,25,01,52,-6.00
2020,04,25,01,53,-6.00
2020,04,25,01,54,-6.00
2020,04,25,01,55,-6.00
2020,04,25,01,56,-6.10
2020,04,25,01,57,-6.10
2020,04,25,01,58,-6.10
2020,04,25,01,59,-6.10
2020,04,25,02,00,-6.10
2020,04,25,02,01,-6.20
2020,04,25,02,02,-6.20
2020,04,25,02,03,-6.20
2020,04,25,02,04,-6.20
2020,04,25,02,05,-6.20
2020,04,25,02,06,-6.30
2020,04,25,02,07,-6.30
2020,04,25,02,08,-6.30
2020,04,25,02,09,-6.30
2020,04,25,02,10,-6.30
2020,04,25,02,11,-6.30
2020,04,25,02,12,-6.30
2020,04,25,02,13,-6.40
2020,04,25,02,14,-6.40
2020,04,25,02,15,-6.40
2020,04,25,02,16,-6.40
2020,04,25,02,17,-6.40
2020,04,25,02,18,-6.50
2020,04,25,02,19,-6.50
2020,04,25,02,20,-6.50
2020,04,25,02,21,-6.60
2020,04,25,02,22,-6.60
2020,04,25,02,23,-6.60
2020,04,25,02,24,-6.60
2020,04,25,02,25,-6.60
2020,04,25,02,26,-6.70
2020,04,25,02,27,-6.70
2020,04,25,02,28,-6.70
2020,04,25,02,29,-6.70
2020,04,25,02,30,-6.70
2020,04,25,02,31,-6.70
2020,04,25,02,32,-6.70
2020,04,25,02,33,-6.60
2020,04,25,02,34,-6.60
2020,04,25,02,35,-6.60
2020,04,25,02,36,-6.60
2020,04,25,02,37,-6.60
2020,04,25,02,38,-6.60
2020,04,25,02,39,-6.60
2020,04,25,02,40,-6.60
2020,04,25,02,41,-6.60
2020,04,25,02,42,-6.60
2020,04,25,02,43,-6.60
2020,04,25,02,44,-6.60
2020,04,25,02,45,-6.70
2020,04,25,02,46,-6.70
2020,04,25,02,47,-6.70
2020,04,25,02,48,-6.70
2020,04,25,02,49,-6.80
2020,04,25,02,50,-6.80
2020,04,25,02,51,-6.80
2020,04,25,02,52,-6.80
2020,04,25,02,53,-6.90
2020,04,25,02,54,-6.90
2020,04,25,02,55,-7.00
2020,04,25,02,56,-7.00
2020,04,25,02,57,-7.00
2020,04,25,02,58,-7.10
2020,04,25,02,59,-7.10
2020,04,25,03,00,-7.10
2020,04,25,03,01,-7.20
2020,04,25,03,02,-7.20
2020,04,25,03,03,-7.20
2020,04,25,03,04,-7.30
2020,04,25,03,05,-7.30
2020,04,25,03,06,-7.30
2020,04,25,03,07,-7.30
2020,04,25,03,08,-7.30
2020,04,25,03,09,-7.20
2020,04,25,03,10,-7.20
2020,04,25,03,11,-7.20
2020,04,25,03,12,-7.20
2020,04,25,03,13,-7.10
2020,04,25,03,14,-7.10
2020,04,25,03,15,-7.10
2020,04,25,03,16,-7.10
2020,04,25,03,17,-7.10
2020,04,25,03,18,-7.00
2020,04,25,03,19,-7.00
2020,04,25,03,20,-7.00
2020,04,25,03,21,-7.00
2020,04,25,03,22,-7.00
2020,04,25,03,23,-7.00
2020,04,25,03,24,-7.00
2020,04,25,03,25,-7.00
2020,04,25,03,26,-7.10
2020,04,25,03,27,-7.10
2020,04,25,03,28,-7.10
2020,04,25,03,29,-7.10
2020,04,25,03,30,-7.10
2020,04,25,03,31,-7.10
2020,04,25,03,32,-7.10
2020,04,25,03,33,-7.10
2020,04,25,03,34,-7.10
2020,04,25,03,35,-7.20
2020,04,25,03,36,-7.20
2020,04,25,03,37,-7.20
2020,04,25,03,38,-7.20
2020,04,25,03,39,-7.20
2020,04,25,03,40,-7.20
2020,04,25,03,41,-7.20
2020,04,25,03,42,-7.20
2020,04,25,03,43,-7.20
2020,04,25,03,44,-7.20
2020,04,25,03,45,-7.20
2020,04,25,03,46,-7.30
2020,04,25,03,47,-7.30
2020,04,25,03,48,-7.30
2020,04,25,03,49,-7.30
2020,04,25,03,50,-7.40
2020,04,25,03,51,-7.40
2020,04,25,03,52,-7.50
2020,04,25,03,53,-7.50
2020,04,25,03,54,-7.60
2020,04,25,03,55,-7.60
2020,04,25,03,56,-7.60
2020,04,25,03,57,-7.60
2020,04,25,03,58,-7.60
2020,04,25,03,59,-7.60
2020,04,25,04,00,-7.70
2020,04,25,04,01,-7.70
2020,04,25,04,02,-7.70
2020,04,25,04,03,-7.70
2020,04,25,04,04,-7.80
2020,04,25,04,05,-7.80
2020,04,25,04,06,-7.80
2020,04,25,04,07,-7.80
2020,04,25,04,08,-7.90
2020,04,25,04,09,-7.90
2020,04,25,04,10,-7.90
2020,04,25,04,11,-7.90
2020,04,25,04,12,-7.90
2020,04,25,04,13,-7.90
2020,04,25,04,14,-8.00
2020,04,25,04,15,-8.00
2020,04,25,04,16,-8.00
2020,04,25,04,17,-8.00
2020,04,25,04,18,-8.00
2020,04,25,04,19,-8.10
2020,04,25,04,20,-8.10
2020,04,25,04,21,-8.10
2020,04,25,04,22,-8.10
2020,04,25,04,23,-8.10
2020,04,25,04,24,-8.20
2020,04,25,04,25,-8.20
2020,04,25,04,26,-8.20
2020,04,25,04,27,-8.20
2020,04,25,04,28,-8.30
2020,04,25,04,29,-8.30
2020,04,25,04,30,-8.30
2020,04,25,04,31,-8.30
2020,04,25,04,32,-8.40
2020,04,25,04,33,-8.40
2020,04,25,04,34,-8.40
2020,04,25,04,35,-8.40
2020,04,25,04,36,-8.40
2020,04,25,04,37,-8.40
2020,04,25,04,38,-8.40
2020,04,25,04,39,-8.50
2020,04,25,04,40,-8.50
2020,04,25,04,41,-8.50
2020,04,25,04,42,-8.50
2020,04,25,04,43,-8.50
2020,04,25,04,44,-8.60
2020,04,25,04,45,-8.60
2020,04,25,04,46,-8.60
2020,04,25,04,47,-8.60
2020,04,25,04,48,-8.60
2020,04,25,04,49,-8.60
2020,04,25,04,50,-8.60
2020,04,25,04,51,-8.60
2020,04,25,04,52,-8.70
2020,04,25,04,53,-8.70
2020,04,25,04,54,-8.70
2020,04,25,04,55,-8.70
2020,04,25,04,56,-8.70
2020,04,25,04,57,-8.70
2020,04,25,04,58,-8.80
2020,04,25,04,59,-8.80
2020,04,25,05,00,-8.80
2020,04,25,05,01,-8.80
2020,04,25,05,02,-8.80
2020,04,25,05,03,-8.80
2020,04,25,05,04,-8.80
2020,04,25,05,05,-8.80
2020,04,25,05,06,-8.80
2020,04,25,05,07,-8.80
2020,04,25,05,08,-8.80
2020,04,25,05,09,-8.80
2020,04,25,05,10,-8.90
2020,04,25,05,11,-8.90
2020,04,25,05,12,-8.90
2020,04,25,05,13,-8.90
2020,04,25,05,14,-9.00
2020,04,25,05,15,-9.00
2020,04,25,05,16,-9.10
2020,04,25,05,17,-9.10
2020,04,25,05,18,-9.10
2020,04,25,05,19,-9.10
2020,04,25,05,20,-9.10
2020,04,25,05,21,-9.10
2020,04,25,05,22,-9.10
2020,04,25,05,23,-9.10
2020,04,25,05,24,-9.20
2020,04,25,05,25,-9.10
2020,04,25,05,26,-9.20
2020,04,25,05,27,-9.20
2020,04,25,05,28,-9.20
2020,04,25,05,29,-9.20
2020,04,25,05,30,-9.20
2020,04,25,05,31,-9.20
2020,04,25,05,32,-9.20
2020,04,25,05,33,-9.20
2020,04,25,05,34,-9.20
2020,04,25,05,35,-9.20
2020,04,25,05,36,-9.20
2020,04,25,05,37,-9.20
2020,04,25,05,38,-9.20
2020,04,25,05,39,-9.20
2020,04,25,05,40,-9.20
2020,04,25,05,41,-9.20
2020,04,25,05,42,-9.30
2020,04,25,05,43,-9.30
2020,04,25,05,44,-9.30
2020,04,25,05,45,-9.30
2020,04,25,05,46,-9.30
2020,04,25,05,47,-9.30
2020,04,25,05,48,-9.30
2020,04,25,05,49,-9.30
2020,04,25,05,50,-9.30
2020,04,25,05,51,-9.30
2020,04,25,05,52,-9.30
2020,04,25,05,53,-9.30
2020,04,25,05,54,-9.30
2020,04,25,05,55,-9.40
2020,04,25,05,56,-9.40
2020,04,25,05,57,-9.40
2020,04,25,05,58,-9.40
2020,04,25,05,59,-9.40
2020,04,25,06,00,-9.40
2020,04,25,06,01,-9.40
2020,04,25,06,02,-9.40
2020,04,25,06,03,-9.40
2020,04,25,06,04,-9.40
2020,04,25,06,05,-9.40
2020,04,25,06,06,-9.40
2020,04,25,06,07,-9.40
2020,04,25,06,08,-9.50
2020,04,25,06,09,-9.50
2020,04,25,06,10,-9.50
2020,04,25,06,11,-9.50
2020,04,25,06,12,-9.50
2020,04,25,06,13,-9.50
2020,04,25,06,14,-9.50
2020,04,25,06,15,-9.50
2020,04,25,06,16,-9.50
2020,04,25,06,17,-9.50
2020,04,25,06,18,-9.50
2020,04,25,06,19,-9.60
2020,04,25,06,20,-9.60
2020,04,25,06,21,-9.60
2020,04,25,06,22,-9.60
2020,04,25,06,23,-9.60
2020,04,25,06,24,-9.60
2020,04,25,06,25,-9.60
2020,04,25,06,26,-9.60
2020,04,25,06,27,-9.60
2020,04,25,06,28,-9.70
2020,04,25,06,29,-9.70
2020,04,25,06,30,-9.70
2020,04,25,06,31,-9.70
2020,04,25,06,32,-9.70
2020,04,25,06,33,-9.70
2020,04,25,06,34,-9.70
2020,04,25,06,35,-9.80
2020,04,25,06,36,-9.80
2020,04,25,06,37,-9.80
2020,04,25,06,38,-9.80
2020,04,25,06,39,-9.80
2020,04,25,06,40,-9.80
2020,04,25,06,41,-9.80
2020,04,25,06,42,-9.80
2020,04,25,06,43,-9.80
2020,04,25,06,44,-9.80
2020,04,25,06,45,-9.80
2020,04,25,06,46,-9.80
2020,04,25,06,47,-9.80
2020,04,25,06,48,-9.80
2020,04,25,06,49,-9.90
2020,04,25,06,50,-9.90
2020,04,25,06,51,-9.90
2020,04,25,06,52,-9.90
2020,04,25,06,53,-9.90
2020,04,25,06,54,-9.90
2020,04,25,06,55,-9.90
2020,04,25,06,56,-9.90
2020,04,25,06,57,-9.90
2020,04,25,06,58,-9.90
2020,04,25,06,59,-10.00
2020,04,25,07,00,-10.00
2020,04,25,07,01,-10.00
2020,04,25,07,02,-10.00
2020,04,25,07,03,-10.00
2020,04,25,07,04,-10.00
2020,04,25,07,05,-10.00
2020,04,25,07,06,-10.00
2020,04,25,07,07,-10.00
2020,04,25,07,08,-10.00
2020,04,25,07,09,-10.00
2020,04,25,07,10,-10.00
2020,04,25,07,11,-10.00
2020,04,25,07,12,-10.00
2020,04,25,07,13,-10.00
2020,04,25,07,14,-10.00
2020,04,25,07,15,-10.10
2020,04,25,07,16,-10.10
2020,04,25,07,17,-10.10
2020,04,25,07,18,-10.10
2020,04,25,07,19,-10.10
2020,04,25,07,20,-10.10
2020,04,25,07,21,-10.10
2020,04,25,07,22,-10.10
2020,04,25,07,23,-10.10
2020,04,25,07,24,-10.10
2020,04,25,07,25,-10.10
2020,04,25,07,26,-10.10
2020,04,25,07,27,-10.10
2020,04,25,07,28,-10.10
2020,04,25,07,29,-10.10
2020,04,25,07,30,-10.10
2020,04,25,07,31,-10.10
2020,04,25,07,32,-10.10
2020,04,25,07,33,-10.10
2020,04,25,07,34,-10.10
2020,04,25,07,35,-10.10
2020,04,25,07,36,-10.10
2020,04,25,07,37,-10.10
2020,04,25,07,38,-10.10
2020,04,25,07,39,-10.10
2020,04,25,07,40,-10.10
2020,04,25,07,41,-10.10
2020,04,25,07,42,-10.00
2020,04,25,07,43,-10.00
2020,04,25,07,44,-10.00
2020,04,25,07,45,-10.00
2020,04,25,07,46,-10.00
2020,04,25,07,47,-10.00
2020,04,25,07,48,-10.00
2020,04,25,07,49,-10.00
2020,04,25,07,50,-10.00
2020,04,25,07,51,-10.00
2020,04,25,07,52,-10.00
2020,04,25,07,53,-10.00
2020,04,25,07,54,-10.00
2020,04,25,07,55,-10.00
2020,04,25,07,56,-10.00
2020,04,25,07,57,-10.00
2020,04,25,07,58,-10.00
2020,04,25,07,59,-10.00
2020,04,25,08,00,-9.90
2020,04,25,08,01,-9.90
2020,04,25,08,02,-9.90
2020,04,25,08,03,-9.90
2020,04,25,08,04,-9.90
2020,04,25,08,05,-9.80
2020,04,25,08,06,-9.80
2020,04,25,08,07,-9.80
2020,04,25,08,08,-9.80
2020,04,25,08,09,-9.80
2020,04,25,08,10,-9.80
2020,04,25,08,11,-9.80
2020,04,25,08,12,-9.80
2020,04,25,08,13,-9.80
2020,04,25,08,14,-9.80
2020,04,25,08,15,-9.80
2020,04,25,08,16,-9.80
2020,04,25,08,17,-9.80
2020,04,25,08,18,-9.80
2020,04,25,08,19,-9.80
2020,04,25,08,20,-9.80
2020,04,25,08,21,-9.80
2020,04,25,08,22,-9.80
2020,04,25,08,23,-9.70
2020,04,25,08,24,-9.70
2020,04,25,08,25,-9.70
2020,04,25,08,26,-9.70
2020,04,25,08,27,-9.70
2020,04,25,08,28,-9.70
2020,04,25,08,29,-9.70
2020,04,25,08,30,-9.70
2020,04,25,08,31,-9.70
2020,04,25,08,32,-9.70
2020,04,25,08,33,-9.70
2020,04,25,08,34,-9.70
2020,04,25,08,35,-9.70
2020,04,25,08,36,-9.60
2020,04,25,08,37,-9.60
2020,04,25,08,38,-9.60
2020,04,25,08,39,-9.50
2020,04,25,08,40,-9.40
2020,04,25,08,41,-9.40
2020,04,25,08,42,-9.20
2020,04,25,08,43,-9.10
2020,04,25,08,44,-9.00
2020,04,25,08,45,-8.90
2020,04,25,08,46,-8.80
2020,04,25,08,47,-8.70
2020,04,25,08,48,-8.60
2020,04,25,08,49,-8.50
2020,04,25,08,50,-8.40
2020,04,25,08,51,-8.30
2020,04,25,08,52,-8.20
2020,04,25,08,53,-8.20
2020,04,25,08,54,-8.20
2020,04,25,08,55,-8.10
2020,04,25,08,56,-8.10
2020,04,25,08,57,-8.00
2020,04,25,08,58,-8.00
2020,04,25,08,59,-7.90
2020,04,25,09,00,-7.90
2020,04,25,09,01,-7.80
2020,04,25,09,02,-7.80
2020,04,25,09,03,-7.70
2020,04,25,09,04,-7.60
2020,04,25,09,05,-7.60
2020,04,25,09,06,-7.50
2020,04,25,09,07,-7.40
2020,04,25,09,08,-7.30
2020,04,25,09,09,-7.20
2020,04,25,09,10,-7.10
2020,04,25,09,11,-7.00
2020,04,25,09,12,-7.00
2020,04,25,09,13,-6.90
2020,04,25,09,14,-6.80
2020,04,25,09,15,-6.80
2020,04,25,09,16,-6.70
2020,04,25,09,17,-6.60
2020,04,25,09,18,-6.60
2020,04,25,09,19,-6.50
2020,04,25,09,20,-6.40
2020,04,25,09,21,-6.40
2020,04,25,09,22,-6.30
2020,04,25,09,23,-6.30
2020,04,25,09,24,-6.20
2020,04,25,09,25,-6.20
2020,04,25,09,26,-6.10
2020,04,25,09,27,-6.10
2020,04,25,09,28,-6.00
2020,04,25,09,29,-6.00
2020,04,25,09,30,-5.90
2020,04,25,09,31,-5.90
2020,04,25,09,32,-5.90
2020,04,25,09,33,-5.90
2020,04,25,09,34,-5.90
2020,04,25,09,35,-5.90
2020,04,25,09,36,-5.90
2020,04,25,09,37,-5.90
2020,04,25,09,38,-5.90
2020,04,25,09,39,-5.90
2020,04,25,09,40,-5.80
2020,04,25,09,41,-5.80
2020,04,25,09,42,-5.80
2020,04,25,09,43,-5.80
2020,04,25,09,44,-5.70
2020,04,25,09,45,-5.70
2020,04,25,09,46,-5.70
2020,04,25,09,47,-5.70
2020,04,25,09,48,-5.70
2020,04,25,09,49,-5.60
2020,04,25,09,50,-5.60
2020,04,25,09,51,-5.60
2020,04,25,09,52,-5.60
2020,04,25,09,53,-5.70
2020,04,25,09,54,-5.60
2020,04,25,09,55,-5.60
2020,04,25,09,56,-5.60
2020,04,25,09,57,-5.50
2020,04,25,09,58,-5.40
2020,04,25,09,59,-5.40
2020,04,25,10,00,-5.40
2020,04,25,10,01,-5.40
2020,04,25,10,02,-5.40
2020,04,25,10,03,-5.30
2020,04,25,10,04,-5.30
2020,04,25,10,05,-5.30
2020,04,25,10,06,-5.30
2020,04,25,10,07,-5.30
2020,04,25,10,08,-5.30
2020,04,25,10,09,-5.20
2020,04,25,10,10,-5.30
2020,04,25,10,11,-5.30
2020,04,25,10,12,-5.30
2020,04,25,10,13,-5.30
2020,04,25,10,14,-5.30
2020,04,25,10,15,-5.40
2020,04,25,10,16,-5.40
2020,04,25,10,17,-5.40
2020,04,25,10,18,-5.40
2020,04,25,10,19,-5.30
2020,04,25,10,20,-5.30
2020,04,25,10,21,-5.30
2020,04,25,10,22,-5.40
2020,04,25,10,23,-5.40
2020,04,25,10,24,-5.30
2020,04,25,10,25,-5.30
2020,04,25,10,26,-5.20
2020,04,25,10,27,-5.20
2020,04,25,10,28,-5.20
2020,04,25,10,29,-5.20
2020,04,25,10,30,-5.10
2020,04,25,10,31,-5.10
2020,04,25,10,32,-5.10
2020,04,25,10,33,-5.10
2020,04,25,10,34,-5.00
2020,04,25,10,35,-5.00
2020,04,25,10,36,-5.00
2020,04,25,10,37,-4.90
2020,04,25,10,38,-4.90
2020,04,25,10,39,-4.90
2020,04,25,10,40,-4.90
2020,04,25,10,41,-4.80
2020,04,25,10,42,-4.80
2020,04,25,10,43,-4.90
2020,04,25,10,44,-4.90
2020,04,25,10,45,-4.90
2020,04,25,10,46,-4.80
2020,04,25,10,47,-4.80
2020,04,25,10,48,-4.80
2020,04,25,10,49,-4.80
2020,04,25,10,50,-4.80
2020,04,25,10,51,-4.80
2020,04,25,10,52,-4.80
2020,04,25,10,53,-4.80
2020,04,25,10,54,-4.80
2020,04,25,10,55,-4.80
2020,04,25,10,56,-4.70
2020,04,25,10,57,-4.70
2020,04,25,10,58,-4.60
2020,04,25,10,59,-4.50
2020,04,25,11,00,-4.50
2020,04,25,11,01,-4.40
2020,04,25,11,02,-4.30
2020,04,25,11,03,-4.30
2020,04,25,11,04,-4.30
2020,04,25,11,05,-4.30
2020,04,25,11,06,-4.20
2020,04,25,11,07,-4.20
2020,04,25,11,08,-4.20
2020,04,25,11,09,-4.20
2020,04,25,11,10,-4.10
2020,04,25,11,11,-4.10
2020,04,25,11,12,-4.10
2020,04,25,11,13,-4.00
2020,04,25,11,14,-4.00
2020,04,25,11,15,-4.00
2020,04,25,11,16,-3.90
2020,04,25,11,17,-3.90
2020,04,25,11,18,-4.00
2020,04,25,11,19,-4.00
2020,04,25,11,20,-3.90
2020,04,25,11,21,-3.90
2020,04,25,11,22,-3.90
2020,04,25,11,23,-3.90
2020,04,25,11,24,-3.80
2020,04,25,11,25,-3.80
2020,04,25,11,26,-3.80
2020,04,25,11,27,-3.80
2020,04,25,11,28,-3.80
2020,04,25,11,29,-3.80
2020,04,25,11,30,-3.80
2020,04,25,11,31,-3.80
2020,04,25,11,32,-3.70
2020,04,25,11,33,-3.70
2020,04,25,11,34,-3.70
2020,04,25,11,35,-3.70
2020,04,25,11,36,-3.70
2020,04,25,11,37,-3.60
2020,04,25,11,38,-3.60
2020,04,25,11,39,-3.60
2020,04,25,11,40,-3.60
2020,04,25,11,41,-3.50
2020,04,25,11,42,-3.50
2020,04,25,11,43,-3.40
2020,04,25,11,44,-3.40
2020,04,25,11,45,-3.40
2020,04,25,11,46,-3.40
2020,04,25,11,47,-3.40
2020,04,25,11,48,-3.40
2020,04,25,11,49,-3.40
2020,04,25,11,50,-3.30
2020,04,25,11,51,-3.30
2020,04,25,11,52,-3.30
2020,04,25,11,53,-3.30
2020,04,25,11,54,-3.20
2020,04,25,11,55,-3.20
2020,04,25,11,56,-3.20
2020,04,25,11,57,-3.20
2020,04,25,11,58,-3.20
2020,04,25,11,59,-3.10
2020,04,25,12,00,-3.20
2020,04,25,12,01,-3.20
2020,04,25,12,02,-3.20
2020,04,25,12,03,-3.20
2020,04,25,12,04,-3.20
2020,04,25,12,05,-3.10
2020,04,25,12,06,-3.10
2020,04,25,12,07,-3.10
2020,04,25,12,08,-3.00
2020,04,25,12,09,-3.00
2020,04,25,12,10,-3.00
2020,04,25,12,11,-3.00
2020,04,25,12,12,-3.00
2020,04,25,12,13,-3.00
2020,04,25,12,14,-3.00
2020,04,25,12,15,-3.00
2020,04,25,12,16,-3.00
2020,04,25,12,17,-2.90
2020,04,25,12,18,-2.90
2020,04,25,12,19,-2.90
2020,04,25,12,20,-2.90
2020,04,25,12,21,-2.90
2020,04,25,12,22,-2.80
2020,04,25,12,23,-2.80
2020,04,25,12,24,-2.70
2020,04,25,12,25,-2.70
2020,04,25,12,26,-2.70
2020,04,25,12,27,-2.70
2020,04,25,12,28,-2.70
2020,04,25,12,29,-2.60
2020,04,25,12,30,-2.60
2020,04,25,12,31,-2.60
2020,04,25,12,32,-2.60
2020,04,25,12,33,-2.60
2020,04,25,12,34,-2.60
2020,04,25,12,35,-2.60
2020,04,25,12,36,-2.60
2020,04,25,12,37,-2.60
2020,04,25,12,38,-2.50
2020,04,25,12,39,-2.50
2020,04,25,12,40,-2.50
2020,04,25,12,41,-2.60
2020,04,25,12,42,-2.60
2020,04,25,12,43,-2.60
2020,04,25,12,44,-2.50
2020,04,25,12,45,-2.50
2020,04,25,12,46,-2.50
2020,04,25,12,47,-2.40
2020,04,25,12,48,-2.30
2020,04,25,12,49,-2.20
2020,04,25,12,50,-2.20
2020,04,25,12,51,-2.20
2020,04,25,12,52,-2.10
2020,04,25,12,53,-2.20
2020,04,25,12,54,-2.20
2020,04,25,12,55,-2.20
2020,04,25,12,56,-2.20
2020,04,25,12,57,-2.20
2020,04,25,12,58,-2.20
2020,04,25,12,59,-2.10
2020,04,25,13,00,-2.10
2020,04,25,13,01,-2.10
2020,04,25,13,02,-2.10
2020,04,25,13,03,-2.00
2020,04,25,13,04,-2.00
2020,04,25,13,05,-2.00
2020,04,25,13,06,-2.00
2020,04,25,13,07,-2.00
2020,04,25,13,08,-2.00
2020,04,25,13,09,-1.90
2020,04,25,13,10,-1.90
2020,04,25,13,11,-1.90
2020,04,25,13,12,-1.90
2020,04,25,13,13,-2.00
2020,04,25,13,14,-2.00
2020,04,25,13,15,-2.00
2020,04,25,13,16,-2.00
2020,04,25,13,17,-2.00
2020,04,25,13,18,-1.90
2020,04,25,13,19,-1.90
2020,04,25,13,20,-2.00
2020,04,25,13,21,-2.00
2020,04,25,13,22,-2.00
2020,04,25,13,23,-2.00
2020,04,25,13,24,-1.90
2020,04,25,13,25,-1.90
2020,04,25,13,26,-1.80
2020,04,25,13,27,-1.80
2020,04,25,13,28,-1.80
2020,04,25,13,29,-1.70
2020,04,25,13,30,-1.70
2020,04,25,13,31,-1.70
2020,04,25,13,32,-1.60
2020,04,25,13,33,-1.60
2020,04,25,13,34,-1.60
2020,04,25,13,35,-1.50
2020,04,25,13,36,-1.50
2020,04,25,13,37,-1.50
2020,04,25,13,38,-1.40
2020,04,25,13,39,-1.30
2020,04,25,13,40,-1.30
2020,04,25,13,41,-1.30
2020,04,25,13,42,-1.30
2020,04,25,13,43,-1.30
2020,04,25,13,44,-1.30
2020,04,25,13,45,-1.30
2020,04,25,13,46,-1.20
2020,04,25,13,47,-1.20
2020,04,25,13,48,-1.20
2020,04,25,13,49,-1.30
2020,04,25,13,50,-1.30
2020,04,25,13,51,-1.20
2020,04,25,13,52,-1.20
2020,04,25,13,53,-1.10
2020,04,25,13,54,-1.10
2020,04,25,13,55,-1.10
2020,04,25,13,56,-1.10
2020,04,25,13,57,-1.10
2020,04,25,13,58,-1.10
2020,04,25,13,59,-1.10
2020,04,25,14,00,-1.00
2020,04,25,14,01,-1.00
2020,04,25,14,02,-0.90
2020,04,25,14,03,-0.90
2020,04,25,14,04,-0.90
2020,04,25,14,05,-0.90
2020,04,25,14,06,-0.90
2020,04,25,14,07,-0.90
2020,04,25,14,08,-0.90
2020,04,25,14,09,-0.90
2020,04,25,14,10,-0.80
2020,04,25,14,11,-0.80
2020,04,25,14,12,-0.80
2020,04,25,14,13,-0.80
2020,04,25,14,14,-0.70
2020,04,25,14,15,-0.70
2020,04,25,14,16,-0.70
2020,04,25,14,17,-0.70
2020,04,25,14,18,-0.70
2020,04,25,14,19,-0.60
2020,04,25,14,20,-0.50
2020,04,25,14,21,-0.50
2020,04,25,14,22,-0.50
2020,04,25,14,23,-0.50
2020,04,25,14,24,-0.50
2020,04,25,14,25,-0.60
2020,04,25,14,26,-0.60
2020,04,25,14,27,-0.50
2020,04,25,14,28,-0.50
2020,04,25,14,29,-0.40
2020,04,25,14,30,-0.40
2020,04,25,14,31,-0.40
2020,04,25,14,32,-0.40
2020,04,25,14,33,-0.40
2020,04,25,14,34,-0.40
2020,04,25,14,35,-0.30
2020,04,25,14,36,-0.30
2020,04,25,14,37,-0.30
2020,04,25,14,38,-0.30
2020,04,25,14,39,-0.40
2020,04,25,14,40,-0.40
2020,04,25,14,41,-0.40
2020,04,25,14,42,-0.40
2020,04,25,14,43,-0.40
2020,04,25,14,44,-0.40
2020,04,25,14,45,-0.40
2020,04,25,14,46,-0.40
2020,04,25,14,47,-0.40
2020,04,25,14,48,-0.40
2020,04,25,14,49,-0.30
2020,04,25,14,50,-0.30
2020,04,25,14,51,-0.30
2020,04,25,14,52,-0.30
2020,04,25,14,53,-0.30
2020,04,25,14,54,-0.30
2020,04,25,14,55,-0.30
2020,04,25,14,56,-0.30
2020,04,25,14,57,-0.20
2020,04,25,14,58,-0.20
2020,04,25,14,59,-0.10
2020,04,25,15,00,-0.10
2020,04,25,15,01,0.00
2020,04,25,15,02,0.00
2020,04,25,15,03,0.00
2020,04,25,15,04,0.00
2020,04,25,15,05,0.10
2020,04,25,15,06,0.10
2020,04,25,15,07,0.10
2020,04,25,15,08,0.10
2020,04,25,15,09,0.10
2020,04,25,15,10,0.10
2020,04,25,15,11,0.10
2020,04,25,15,12,0.00
2020,04,25,15,13,0.00
2020,04,25,15,14,0.00
2020,04,25,15,15,0.10
2020,04,25,15,16,0.10
2020,04,25,15,17,0.10
2020,04,25,15,18,0.20
2020,04,25,15,19,0.20
2020,04,25,15,20,0.20
2020,04,25,15,21,0.20
2020,04,25,15,22,0.20
2020,04,25,15,23,0.20
2020,04,25,15,24,0.20
2020,04,25,15,25,0.20
2020,04,25,15,26,0.20
2020,04,25,15,27,0.20
2020,04,25,15,28,0.20
2020,04,25,15,29,0.20
2020,04,25,15,30,0.20
2020,04,25,15,31,0.20
2020,04,25,15,32,0.20
2020,04,25,15,33,0.20
2020,04,25,15,34,0.20
2020,04,25,15,35,0.20
2020,04,25,15,36,0.20
2020,04,25,15,37,0.30
2020,04,25,15,38,0.30
2020,04,25,15,39,0.30
2020,04,25,15,40,0.30
2020,04,25,15,41,0.30
2020,04,25,15,42,0.40
2020,04,25,15,43,0.40
2020,04,25,15,44,0.50
2020,04,25,15,45,0.50
2020,04,25,15,46,0.50
2020,04,25,15,47,0.60
2020,04,25,15,48,0.60
2020,04,25,15,49,0.60
2020,04,25,15,50,0.60
2020,04,25,15,51,0.60
2020,04,25,15,52,0.60
2020,04,25,15,53,0.70
2020,04,25,15,54,0.70
2020,04,25,15,55,0.70
2020,04,25,15,56,0.70
2020,04,25,15,57,0.70
2020,04,25,15,58,0.70
2020,04,25,15,59,0.70
2020,04,25,16,00,0.70
2020,04,25,16,01,0.70
2020,04,25,16,02,0.70
2020,04,25,16,03,0.70
2020,04,25,16,04,0.70
2020,04,25,16,05,0.70
2020,04,25,16,06,0.70
2020,04,25,16,07,0.70
2020,04,25,16,08,0.70
2020,04,25,16,09,0.70
2020,04,25,16,10,0.80
2020,04,25,16,11,0.80
2020,04,25,16,12,0.80
2020,04,25,16,13,0.90
2020,04,25,16,14,0.90
2020,04,25,16,15,0.90
2020,04,25,16,16,0.90
2020,04,25,16,17,0.90
2020,04,25,16,18,1.00
2020,04,25,16,19,1.00
2020,04,25,16,20,1.00
2020,04,25,16,21,1.00
2020,04,25,16,22,1.00
2020,04,25,16,23,1.00
2020,04,25,16,24,1.00
2020,04,25,16,25,1.00
2020,04,25,16,26,1.10
2020,04,25,16,27,1.10
2020,04,25,16,28,1.20
2020,04,25,16,29,1.20
2020,04,25,16,30,1.10
2020,04,25,16,31,1.10
2020,04,25,16,32,1.10
2020,04,25,16,33,1.10
2020,04,25,16,34,1.00
2020,04,25,16,35,1.00
2020,04,25,16,36,1.00
2020,04,25,16,37,1.00
2020,04,25,16,38,1.00
2020,04,25,16,39,1.00
2020,04,25,16,40,1.00
2020,04,25,16,41,1.00
2020,04,25,16,42,1.10
2020,04,25,16,43,1.10
2020,04,25,16,44,1.10
2020,04,25,16,45,1.10
2020,04,25,16,46,1.20
2020,04,25,16,47,1.20
2020,04,25,16,48,1.20
2020,04,25,16,49,1.20
2020,04,25,16,50,1.20
2020,04,25,16,51,1.30
2020,04,25,16,52,1.20
2020,04,25,16,53,1.30
2020,04,25,16,54,1.20
2020,04,25,16,55,1.20
2020,04,25,16,56,1.30
2020,04,25,16,57,1.30
2020,04,25,16,58,1.20
2020,04,25,16,59,1.30
2020,04,25,17,00,1.30
2020,04,25,17,01,1.30
2020,04,25,17,02,1.30
2020,04,25,17,03,1.30
2020,04,25,17,04,1.40
2020,04,25,17,05,1.40
2020,04,25,17,06,1.40
2020,04,25,17,07,1.40
2020,04,25,17,08,1.40
2020,04,25,17,09,1.50
2020,04,25,17,10,1.50
2020,04,25,17,11,1.60
2020,04,25,17,12,1.60
2020,04,25,17,13,1.60
2020,04,25,17,14,1.60
2020,04,25,17,15,1.60
2020,04,25,17,16,1.60
2020,04,25,17,17,1.60
2020,04,25,17,18,1.60
2020,04,25,17,19,1.70
2020,04,25,17,20,1.70
2020,04,25,17,21,1.60
2020,04,25,17,22,1.60
2020,04,25,17,23,1.60